Location: Newark
(35.4500°N, 118.9467°W)
Time: 11:57:37
(UTC+00:00)

Hubble Space Telescope - Pass Details

Date: 28 January 2020
Orbit: 536 x 540 km, 28.5° (Epoch: 21 February)

Event Time Altitude Azimuth Distance (km) Brightness Sun altitude
Rises 13:50:16 0° 214° (SW) 2,661 4.1 -14.1°
Reaches altitude 10° 13:53:41 10° 185° (S) 1,774 3.5 -13.4°
Maximum altitude 13:55:28 13° 159° (SSE) 1,618 3.7 -13.1°
Drops below altitude 10° 13:57:15 10° 133° (SE) 1,777 4.4 -12.7°
Sets 14:00:40 0° 104° (ESE) 2,670 6.5 -12.0°
